Flag for Peru Weather past 2 weeks in Trujillo, La Libertad, Peru

Now
70 °F

Fog.


Feels Like: 70 °F
Forecast: 67 / 78 °F
Wind: 8 mph from Southeast

Location: Trujillo Airport

Current Time: May 26, 2015 at 1:21:32 AM

Latest Report: May 26, 2015 at 1:00 AM


Visibility: 3 mi

Pressure: 29.89 "Hg

Humidity: 88%

Dew point: 66 °F

Location of TrujilloLocation

Historic Weather in Trujillo — Graph

°F

Trujillo temperature yesterday

Maximum temperature yesterday: 75 °F (at 1:00 PM)
Minimum temperature yesterday: 70 °F (at 11:00 PM)
Average temperature yesterday: 73 °F

Past Weeks' High & Low Weather Summary

 TemperatureHumidityPressure
High77 °F (May 21, 1:00 PM)94% (May 12, 7:00 AM)29.98 "Hg (May 12, 7:00 AM)
Low68 °F (May 11, 3:00 AM)65% (May 22, 8:00 AM)29.74 "Hg (May 11, 3:00 PM)
Average72 °F82%29.88 "Hg
* Reported Midnight between May 10 and May 11 — Midnight between May 25 and May 26, Trujillo, Weather by CustomWeather, © 2015

Note: Actual official high and low records may vary slightly from our data, if they occured in-between our weather recording intervals... More about our weather records

Advertising

Trujillo weather history for previous 24 hours

 ConditionsComfort  
Time TempWeatherWind HumidityBarometerVisibility
12:00 AM
Tue, May 26
72 °FFog.7 mph83%29.92 "Hg3 mi
11:00 PM
Mon, May 25
70 °FFog.7 mph88%29.92 "Hg3 mi
10:00 PM72 °FFog.8 mph83%29.92 "Hg3 mi
9:00 PM72 °FFog.8 mph83%29.92 "Hg3 mi
8:00 PM72 °FOvercast.9 mph83%29.92 "Hg4 mi
7:00 PM73 °FPassing clouds.9 mph78%29.89 "Hg4 mi
6:00 PM73 °FFog.10 mph78%29.89 "Hg3 mi
5:00 PM75 °FPassing clouds.13 mph74%29.86 "Hg4 mi
4:00 PM75 °FPassing clouds.14 mph74%29.86 "Hg5 mi
3:00 PM75 °FScattered clouds.14 mph74%29.86 "Hg5 mi
2:00 PM75 °FOvercast.13 mph74%29.89 "Hg4 mi
1:00 PM75 °FOvercast.10 mph74%29.92 "Hg5 mi
12:00 PM73 °FOvercast.10 mph78%29.95 "Hg4 mi
11:00 AM73 °FOvercast.10 mph78%29.95 "Hg5 mi
10:00 AM73 °FOvercast.8 mph78%29.95 "Hg4 mi
9:00 AM72 °FOvercast.7 mph83%29.95 "Hg4 mi
8:00 AM72 °FOvercast.7 mph83%29.95 "Hg4 mi
7:00 AM72 °FFog.6 mph83%29.92 "Hg3 mi
6:00 AM72 °FFog.5 mph83%29.89 "Hg3 mi
5:00 AM72 °FFog.6 mph83%29.89 "Hg3 mi
4:00 AM72 °FFog.3 mph83%29.89 "Hg3 mi
3:00 AM72 °FOvercast.5 mph78%29.89 "Hg4 mi
1:00 AM72 °FOvercast.6 mph78%29.92 "Hg4 mi
Weather by CustomWeather, © 2015

See weather overviewHow to use our weather pages